When you browse on this site, cookies collect data to enhance your experience and personalize the content and advertising you see.
Visit our Privacy Policy to learn more. By continuing to use the site, you agree to this use of cookies and data.
EN

Hourly Weather Kostryzhivka

Today, 6 August, Thursday

Time Temperature Precipitation Wind Pressure Humidity
00:00 +20°C° 0 mm 2 mps 738 mmHg 85%
01:00 +19°C° 0 mm 2 mps 738 mmHg 89%
02:00 +16°C° 0 mm 0 mps 738 mmHg 87%
03:00 +17°C° 0 mm 2 mps 738 mmHg 91%
04:00 +16°C° 0 mm 2 mps 739 mmHg 93%
05:00 +16°C° 0 mm 2 mps 739 mmHg 95%
06:00 +16°C° 0 mm 2 mps 739 mmHg 95%
07:00 +18°C° 0 mm 1 mps 739 mmHg 93%
08:00 +20°C° 0 mm 1 mps 740 mmHg 89%
09:00 +20°C° 0 mm 0 mps 740 mmHg 82%
10:00 +22°C° 0 mm 0 mps 741 mmHg 76%
11:00 +26°C° 0 mm 1 mps 741 mmHg 66%
12:00 +28°C° 0 mm 1 mps 741 mmHg 62%
13:00 +29°C° 0 mm 2 mps 741 mmHg 55%
14:00 +30°C° 0 mm 3 mps 741 mmHg 50%
15:00 +30°C° 0 mm 4 mps 741 mmHg 50%
16:00 +30°C° 0 mm 5 mps 741 mmHg 51%
17:00 +29°C° 0 mm 5 mps 741 mmHg 53%
18:00 +28°C° 0 mm 4 mps 741 mmHg 58%
19:00 +27°C° 0 mm 3 mps 740 mmHg 67%
20:00 +25°C° 0 mm 2 mps 741 mmHg 74%
21:00 +24°C° 0 mm 2 mps 741 mmHg 79%
22:00 +23°C° 0 mm 2 mps 741 mmHg 86%
23:00 +21°C° 0 mm 2 mps 741 mmHg 89%

Tomorrow, 7 August, Friday

Time Temperature Precipitation Wind Pressure Humidity
00:00 +21°C° 0 mm 2 mps 741 mmHg 89%
01:00 +22°C° 0 mm 1 mps 741 mmHg 90%
02:00 +20°C° 0 mm 2 mps 742 mmHg 94%
03:00 +19°C° 0 mm 2 mps 741 mmHg 94%
04:00 +19°C° 0 mm 2 mps 741 mmHg 95%
05:00 +18°C° 0 mm 2 mps 741 mmHg 96%
06:00 +18°C° 0 mm 2 mps 741 mmHg 97%
07:00 +20°C° 0 mm 1 mps 742 mmHg 97%
08:00 +21°C° 0 mm 2 mps 742 mmHg 94%
09:00 +24°C° 0 mm 1 mps 743 mmHg 92%
10:00 +25°C° 0 mm 2 mps 743 mmHg 90%
11:00 +26°C° 0 mm 2 mps 743 mmHg 86%
12:00 +27°C° 0 mm 2 mps 743 mmHg 80%
13:00 +28°C° 0 mm 4 mps 742 mmHg 76%
14:00 +28°C° 0 mm 4 mps 742 mmHg 73%
15:00 +28°C° 0 mm 6 mps 742 mmHg 74%
16:00 +28°C° 0 mm 6 mps 741 mmHg 77%
17:00 +27°C° 0 mm 5 mps 741 mmHg 80%
18:00 +26°C° 0 mm 5 mps 741 mmHg 83%
19:00 +25°C° 0 mm 4 mps 741 mmHg 88%
20:00 +23°C° 0 mm 4 mps 741 mmHg 94%
21:00 +22°C° 0 mm 3 mps 741 mmHg 94%
22:00 +21°C° 0 mm 3 mps 742 mmHg 97%
23:00 +21°C° 0 mm 3 mps 742 mmHg 100%

Day after tomorrow, 8 August, Saturday

Time Temperature Precipitation Wind Pressure Humidity
00:00 +20°C° 0 mm 2 mps 742 mmHg 100%
01:00 +21°C° 0 mm 2 mps 741 mmHg 99%
02:00 +20°C° 0 mm 2 mps 741 mmHg 100%
03:00 +19°C° 0 mm 2 mps 741 mmHg 100%
04:00 +19°C° 0 mm 2 mps 741 mmHg 100%
05:00 +19°C° 0 mm 2 mps 741 mmHg 100%
06:00 +19°C° 0 mm 3 mps 741 mmHg 100%
07:00 +19°C° 0 mm 3 mps 742 mmHg 98%
08:00 +19°C° 0 mm 3 mps 742 mmHg 97%
09:00 +20°C° 0 mm 3 mps 742 mmHg 97%
10:00 +20°C° 0 mm 3 mps 742 mmHg 97%
11:00 +21°C° 0 mm 3 mps 742 mmHg 96%
12:00 +22°C° 0 mm 3 mps 742 mmHg 95%
13:00 +22°C° 0 mm 3 mps 742 mmHg 91%
14:00 +24°C° 0 mm 3 mps 741 mmHg 85%
15:00 +24°C° 0 mm 3 mps 741 mmHg 85%
16:00 +24°C° 0 mm 3 mps 741 mmHg 83%
17:00 +24°C° 0 mm 3 mps 740 mmHg 83%
18:00 +24°C° 0 mm 2 mps 740 mmHg 85%
19:00 +23°C° 0 mm 2 mps 740 mmHg 91%
20:00 +21°C° 0 mm 2 mps 740 mmHg 94%
21:00 +21°C° 0 mm 2 mps 740 mmHg 96%
22:00 +20°C° 0 mm 2 mps 740 mmHg 97%
23:00 +19°C° 0 mm 2 mps 740 mmHg 98%

9 August, Sunday

Time Temperature Precipitation Wind Pressure Humidity
00:00 +20°C° 0 mm 1 mps 740 mmHg 99%
01:00 +19°C° 0 mm 1 mps 740 mmHg 99%
02:00 +19°C° 0 mm 1 mps 740 mmHg 99%
03:00 +19°C° 0 mm 1 mps 740 mmHg 99%
04:00 +18°C° 0 mm 1 mps 739 mmHg 99%
05:00 +18°C° 0 mm 1 mps 740 mmHg 100%
06:00 +18°C° 0 mm 1 mps 739 mmHg 100%
07:00 +19°C° 0 mm 1 mps 740 mmHg 99%
08:00 +20°C° 0 mm 1 mps 740 mmHg 97%
09:00 +21°C° 0 mm 1 mps 740 mmHg 96%
10:00 +22°C° 0 mm 1 mps 741 mmHg 92%
11:00 +23°C° 0 mm 2 mps 740 mmHg 87%
12:00 +22°C° 0 mm 3 mps 740 mmHg 85%
13:00 +24°C° 0 mm 3 mps 740 mmHg 83%
14:00 +24°C° 0 mm 3 mps 739 mmHg 85%
15:00 +24°C° 0.7 mm 2 mps 739 mmHg 86%
16:00 +24°C° 0.2 mm 3 mps 739 mmHg 84%
17:00 +25°C° 0 mm 3 mps 739 mmHg 82%
18:00 +24°C° 0 mm 2 mps 738 mmHg 84%
19:00 +24°C° 0 mm 1 mps 738 mmHg 91%
20:00 +23°C° 0 mm 1 mps 739 mmHg 95%
21:00 +22°C° 0 mm 1 mps 739 mmHg 94%
22:00 +22°C° 0 mm 1 mps 739 mmHg 95%
23:00 +21°C° 0 mm 1 mps 739 mmHg 97%

10 August, Monday

Time Temperature Precipitation Wind Pressure Humidity
00:00 +21°C° 0 mm 1 mps 739 mmHg 96%
01:00 +21°C° 0 mm 1 mps 738 mmHg 96%
02:00 +20°C° 0 mm 1 mps 738 mmHg 97%
03:00 +20°C° 0 mm 1 mps 738 mmHg 98%
04:00 +20°C° 0 mm 1 mps 738 mmHg 99%
05:00 +19°C° 0 mm 1 mps 738 mmHg 100%
06:00 +19°C° 0 mm 1 mps 738 mmHg 100%
07:00 +20°C° 0 mm 1 mps 738 mmHg 100%
08:00 +20°C° 0 mm 1 mps 738 mmHg 99%
09:00 +21°C° 0 mm 1 mps 738 mmHg 98%
10:00 +21°C° 0 mm 2 mps 739 mmHg 97%
11:00 +23°C° 0 mm 2 mps 739 mmHg 94%
12:00 +22°C° 0 mm 3 mps 738 mmHg 91%
13:00 +24°C° 0 mm 2 mps 738 mmHg 88%
14:00 +24°C° 0 mm 3 mps 738 mmHg 88%
15:00 +25°C° 0 mm 3 mps 738 mmHg 85%
16:00 +25°C° 0 mm 3 mps 737 mmHg 85%
17:00 +25°C° 0 mm 3 mps 737 mmHg 85%
18:00 +25°C° 0 mm 3 mps 737 mmHg 87%
19:00 +24°C° 0 mm 1 mps 737 mmHg 92%
20:00 +23°C° 0 mm 1 mps 737 mmHg 96%
21:00 +21°C° 0 mm 2 mps 737 mmHg 97%
22:00 +21°C° 0 mm 2 mps 737 mmHg 98%
23:00 +20°C° 0 mm 2 mps 738 mmHg 99%

11 August, Tuesday

Time Temperature Precipitation Wind Pressure Humidity
00:00 +21°C° 0 mm 1 mps 738 mmHg 99%
01:00 +20°C° 0 mm 1 mps 738 mmHg 100%
02:00 +19°C° 0 mm 2 mps 738 mmHg 99%
03:00 +20°C° 0 mm 1 mps 738 mmHg 99%
04:00 +20°C° 0 mm 1 mps 738 mmHg 99%
05:00 +20°C° 0 mm 1 mps 738 mmHg 98%
06:00 +20°C° 0 mm 1 mps 737 mmHg 98%
07:00 +20°C° 0 mm 1 mps 738 mmHg 98%
08:00 +19°C° 0 mm 2 mps 738 mmHg 97%
09:00 +19°C° 0 mm 2 mps 738 mmHg 96%
10:00 +20°C° 0 mm 2 mps 739 mmHg 95%
11:00 +20°C° 0 mm 2 mps 739 mmHg 93%
12:00 +20°C° 0 mm 2 mps 739 mmHg 94%
13:00 +22°C° 0 mm 1 mps 738 mmHg 92%
14:00 +24°C° 0 mm 1 mps 738 mmHg 88%
15:00 +24°C° 0 mm 2 mps 738 mmHg 86%
16:00 +24°C° 0 mm 1 mps 737 mmHg 86%
17:00 +24°C° 0.9 mm 1 mps 737 mmHg 88%
18:00 +21°C° 2.4 mm 0 mps 737 mmHg 93%
19:00 +23°C° 0 mm 1 mps 737 mmHg 95%
20:00 +23°C° 0 mm 1 mps 737 mmHg 94%
21:00 +22°C° 0 mm 1 mps 737 mmHg 97%
22:00 +20°C° 0.6 mm 2 mps 737 mmHg 98%
23:00 +21°C° 0.7 mm 1 mps 737 mmHg 99%
Show more